Location: Unspecified
(0.0000°N, 0.0000°E)
Time: 09:12:27
(UTC+00:00)

Vanguard 2 Rocket - Pass Details

Date: 20 December 2018
Orbit: 554 x 3327 km, 32.9° (Epoch: 18 January)

Event Time Altitude Azimuth Distance (km) Brightness Sun altitude
Rises 22:14:15 0° 226° (SW) 7,263 12.0 -55.6°
Reaches altitude 10° 22:19:56 10° 220° (SW) 6,074 11.4 -56.6°
Enters shadow 22:33:19 40° 180° (S) 3,413 9.7 -58.9°
Maximum altitude 22:36:39 44° 153° (SSE) 3,036 - -59.4°
Drops below altitude 10° 22:47:07 10° 85° (E) 3,928 - -61.0°
Sets 22:49:53 0° 78° (ENE) 4,592 - -61.3°
